,,,PA_Meas_PMT16A,,PR_Meas_QMR101_102,,RH_Meas_QMH101,,SR_Meas_QMS101,,TA_Meas_QMH101,,GenWind,,GenWind,
date,time,status,PA,status,PR,status,RH,status,SR,status,TA,status,DirAvg,status,SpdAvg,
2010-09-20, 00:00:04,VALID,1003.16,VALID,0,VALID,83.0327,VALID,0,VALID,26.7804,VALID,70,VALID,0.4125,
2010-09-20, 00:01:04,VALID,1003.21,VALID,0,VALID,83.2311,VALID,0,VALID,26.7394,VALID,74,VALID,0.269922,
2010-09-20, 00:02:04,VALID,1003.21,VALID,0,VALID,83.2158,VALID,0,VALID,26.7004,VALID,30,VALID,0.91875,
2010-09-20, 00:03:04,VALID,1003.25,VALID,0,VALID,83.1929,VALID,0,VALID,26.7219,VALID,10,VALID,0.479688,
2010-09-20, 00:04:04,VALID,1003.25,VALID,0,VALID,83.0861,VALID,0,VALID,26.7004,VALID,22,VALID,0.667578,
2010-09-20, 00:05:04,VALID,1003.26,VALID,0,VALID,83.1624,VALID,0,VALID,26.7199,VALID,127,VALID,0.833984,
2010-09-20, 00:06:04,VALID,1003.26,VALID,0,VALID,82.9641,VALID,0,VALID,26.7394,VALID,90,VALID,0.345313,
2010-09-20, 00:07:04,VALID,1003.29,VALID,0,VALID,83.1319,VALID,0.100563,VALID,26.7394,VALID,46,VALID,0.742188,
2010-09-20, 00:08:04,VALID,1003.32,VALID,0,VALID,82.9717,VALID,0.100563,VALID,26.7394,VALID,72,VALID,1.05078,
2010-09-20, 00:09:04,VALID,1003.32,VALID,0,VALID,83.048,VALID,0,VALID,26.7373,VALID,55,VALID,0.600781,
2010-09-20, 00:10:04,VALID,1003.39,VALID,0,VALID,83.1167,VALID,0.100563,VALID,26.7589,VALID,95,VALID,0.534375,
2010-09-20, 00:11:04,VALID,1003.39,VALID,0,VALID,83.1319,VALID,0,VALID,26.7414,VALID,46,VALID,0.434766,
2010-09-20, 00:12:04,VALID,1003.4,VALID,0,VALID,83.2082,VALID,0,VALID,26.7414,VALID,81,VALID,0.141797,
2010-09-20, 00:13:04,VALID,1003.41,VALID,0,VALID,83.5057,VALID,0,VALID,26.7219,VALID,13,VALID,0.910547,
2010-09-20, 00:14:04,VALID,1003.41,VALID,0,VALID,83.5439,VALID,0,VALID,26.644,VALID,14,VALID,0.423828,
2010-09-20, 00:15:04,VALID,1003.43,VALID,0,VALID,83.9482,VALID,0,VALID,26.6245,VALID,14,VALID,0.705078,
2010-09-20, 00:16:04,VALID,1003.45,VALID,0,VALID,84.1237,VALID,0,VALID,26.605,VALID,45,VALID,0.517969,
2010-09-20, 00:17:04,VALID,1003.47,VALID,0,VALID,84.055,VALID,0,VALID,26.5661,VALID,89,VALID,1.11992,
2010-09-20, 00:18:04,VALID,1003.53,VALID,0,VALID,83.849,VALID,0,VALID,26.5855,VALID,56,VALID,0.345703,
2010-09-20, 00:19:04,VALID,1003.55,VALID,0,VALID,83.9253,VALID,0,VALID,26.5855,VALID,99,VALID,1.1582,
2010-09-20, 00:20:04,VALID,1003.57,VALID,0,VALID,83.8261,VALID,0,VALID,26.605,VALID,102,VALID,1.16172,
2010-09-20, 00:21:04,VALID,1003.55,VALID,0,VALID,83.8033,VALID,0,VALID,26.644,VALID,61,VALID,0.752344,
2010-09-20, 00:22:04,VALID,1003.55,VALID,0,VALID,83.5744,VALID,0,VALID,26.644,VALID,95,VALID,0.774219,
2010-09-20, 00:23:04,VALID,1003.51,VALID,0,VALID,83.4905,VALID,0,VALID,26.6635,VALID,18,VALID,0.989844,
2010-09-20, 00:24:04,VALID,1003.51,VALID,0,VALID,83.6964,VALID,0,VALID,26.644,VALID,14,VALID,0.751562,
2010-09-20, 00:25:04,VALID,1003.49,VALID,0,VALID,83.7422,VALID,0,VALID,26.6245,VALID,65,VALID,0.714453,
2010-09-20, 00:26:04,VALID,1003.48,VALID,0,VALID,83.9177,VALID,0,VALID,26.6245,VALID,23,VALID,0.667188,
2010-09-20, 00:27:04,VALID,1003.5,VALID,0,VALID,83.8567,VALID,0,VALID,26.605,VALID,18,VALID,0.819141,
2010-09-20, 00:28:04,VALID,1003.5,VALID,0,VALID,83.994,VALID,0,VALID,26.5855,VALID,16,VALID,1.06367,
2010-09-20, 00:29:04,VALID,1003.53,VALID,0,VALID,84.1466,VALID,0,VALID,26.5251,VALID,21,VALID,0.604688,
2010-09-20, 00:30:04,VALID,1003.52,VALID,0,VALID,84.2,VALID,0,VALID,26.5271,VALID,18,VALID,1.24883,
2010-09-20, 00:31:04,VALID,1003.57,VALID,0,VALID,84.2991,VALID,0,VALID,26.5271,VALID,87,VALID,0.940625,
2010-09-20, 00:32:04,VALID,1003.61,VALID,0,VALID,84.3983,VALID,0,VALID,26.5076,VALID,7,VALID,0.739453,
2010-09-20, 00:33:04,VALID,1003.64,VALID,0,VALID,84.2534,VALID,0,VALID,26.5076,VALID,71,VALID,1.01367,
2010-09-20, 00:34:04,VALID,1003.66,VALID,0,VALID,84.5051,VALID,0,VALID,26.5076,VALID,81,VALID,0.395312,
2010-09-20, 00:35:04,VALID,1003.71,VALID,0,VALID,84.3678,VALID,0,VALID,26.4881,VALID,74,VALID,0.0902344,
2010-09-20, 00:36:04,VALID,1003.7,VALID,0,VALID,84.5814,VALID,0,VALID,26.4687,VALID,102,VALID,0.221094,
2010-09-20, 00:37:04,VALID,1003.72,VALID,0,VALID,84.6119,VALID,0,VALID,26.4492,VALID,55,VALID,0.471875,
2010-09-20, 00:38:04,VALID,1003.73,VALID,0,VALID,84.6043,VALID,0,VALID,26.4687,VALID,75,VALID,0.308984,
2010-09-20, 00:39:04,VALID,1003.73,VALID,0,VALID,84.4899,VALID,0,VALID,26.4492,VALID,25,VALID,0.65625,
2010-09-20, 00:40:04,VALID,1003.73,VALID,0,VALID,84.6119,VALID,0,VALID,26.4687,VALID,16,VALID,0.746094,
2010-09-20, 00:41:04,VALID,1003.75,VALID,0,VALID,84.7416,VALID,0,VALID,26.4687,VALID,54,VALID,0.692969,
2010-09-20, 00:42:04,VALID,1003.74,VALID,0,VALID,84.383,VALID,0,VALID,26.5076,VALID,16,VALID,0.84375,
2010-09-20, 00:43:04,VALID,1003.7,VALID,0,VALID,84.3678,VALID,0,VALID,26.5056,VALID,12,VALID,0.853906,
2010-09-20, 00:44:04,VALID,1003.71,VALID,0,VALID,84.2839,VALID,0,VALID,26.5271,VALID,22,VALID,0.998438,
2010-09-20, 00:45:04,VALID,1003.7,VALID,0,VALID,84.1847,VALID,0,VALID,26.5466,VALID,35,VALID,0.475,
2010-09-20, 00:46:04,VALID,1003.74,VALID,0,VALID,84.1237,VALID,0,VALID,26.5056,VALID,12,VALID,0.807813,
2010-09-20, 00:47:04,VALID,1003.77,VALID,0,VALID,84.1084,VALID,0,VALID,26.5251,VALID,38,VALID,0.908984,
2010-09-20, 00:48:04,VALID,1003.78,VALID,0,VALID,84.261,VALID,0,VALID,26.5056,VALID,7,VALID,0.796484,
2010-09-20, 00:49:04,VALID,1003.81,VALID,0,VALID,84.383,VALID,0,VALID,26.4861,VALID,22,VALID,1.1707,
2010-09-20, 00:50:04,VALID,1003.85,VALID,0,VALID,84.3907,VALID,0,VALID,26.4667,VALID,28,VALID,0.841797,
2010-09-20, 00:51:04,VALID,1003.85,VALID,0,VALID,84.3144,VALID,0,VALID,26.5076,VALID,18,VALID,0.994141,
2010-09-20, 00:52:04,VALID,1003.86,VALID,0,VALID,84.0703,VALID,0,VALID,26.5271,VALID,59,VALID,0.937109,
2010-09-20, 00:53:04,VALID,1003.87,VALID,0,VALID,83.9863,VALID,0,VALID,26.5251,VALID,16,VALID,0.864453,
2010-09-20, 00:54:04,VALID,1003.89,VALID,0,VALID,84.116,VALID,0,VALID,26.5466,VALID,24,VALID,1.12188,
2010-09-20, 00:55:04,VALID,1003.91,VALID,0,VALID,83.9406,VALID,0,VALID,26.5446,VALID,30,VALID,0.93125,
2010-09-20, 00:56:04,VALID,1003.93,VALID,0,VALID,84.055,VALID,0,VALID,26.5855,VALID,25,VALID,0.732813,
2010-09-20, 00:57:04,VALID,1003.93,VALID,0,VALID,83.9024,VALID,0,VALID,26.5466,VALID,15,VALID,0.667578,
2010-09-20, 00:58:04,VALID,1003.93,VALID,0,VALID,83.9863,VALID,0,VALID,26.5466,VALID,17,VALID,1.33984,
2010-09-20, 00:59:04,VALID,1003.96,VALID,0,VALID,84.0092,VALID,0,VALID,26.5231,VALID,11,VALID,1.08711,
2010-09-20, 01:00:04,VALID,1003.97,VALID,0,VALID,84.1923,VALID,0,VALID,26.5056,VALID,16,VALID,0.662109,
2010-09-20, 01:01:04,VALID,1004.02,VALID,0,VALID,84.0397,VALID,0,VALID,26.5056,VALID,33,VALID,1.54258,
2010-09-20, 01:02:04,VALID,1004.04,VALID,0,VALID,83.9024,VALID,0,VALID,26.5251,VALID,24,VALID,1.18672,
2010-09-20, 01:03:04,VALID,1004.06,VALID,0,VALID,83.9482,VALID,0,VALID,26.5446,VALID,38,VALID,1.11172,
2010-09-20, 01:04:04,VALID,1004.05,VALID,0,VALID,84.055,VALID,0,VALID,26.5251,VALID,15,VALID,1.0418,
2010-09-20, 01:05:04,VALID,1004.08,VALID,0,VALID,84.1008,VALID,0,VALID,26.5271,VALID,21,VALID,1.13125,
2010-09-20, 01:06:04,VALID,1004.09,VALID,0,VALID,84.0245,VALID,0,VALID,26.5271,VALID,28,VALID,0.659766,
2010-09-20, 01:07:04,VALID,1004.12,VALID,0,VALID,84.0169,VALID,0,VALID,26.5251,VALID,47,VALID,0.812891,
2010-09-20, 01:08:04,VALID,1004.13,VALID,0,VALID,83.9558,VALID,0,VALID,26.5251,VALID,2,VALID,0.761719,
2010-09-20, 01:09:04,VALID,1004.18,VALID,0,VALID,83.8872,VALID,0,VALID,26.5446,VALID,93,VALID,0.764063,
2010-09-20, 01:10:04,VALID,1004.22,VALID,0,VALID,83.9482,VALID,0,VALID,26.5446,VALID,33,VALID,1.52188,
2010-09-20, 01:11:04,VALID,1004.22,VALID,0,VALID,83.8643,VALID,0,VALID,26.5446,VALID,42,VALID,0.849219,
2010-09-20, 01:12:04,VALID,1004.21,VALID,0,VALID,83.7117,VALID,0,VALID,26.5661,VALID,355,VALID,1.00859,
2010-09-20, 01:13:04,VALID,1004.21,VALID,0,VALID,83.6736,VALID,0,VALID,26.5641,VALID,23,VALID,0.375391,
2010-09-20, 01:14:04,VALID,1004.23,VALID,0,VALID,83.7346,VALID,0,VALID,26.5855,VALID,24,VALID,0.600391,
2010-09-20, 01:15:04,VALID,1004.22,VALID,0,VALID,83.8109,VALID,0,VALID,26.5641,VALID,56,VALID,0.924609,
2010-09-20, 01:16:04,VALID,1004.24,VALID,0,VALID,83.7041,VALID,0,VALID,26.5835,VALID,4,VALID,0.681641,
2010-09-20, 01:17:04,VALID,1004.26,VALID,0,VALID,83.8948,VALID,0,VALID,26.5446,VALID,45,VALID,0.817969,
2010-09-20, 01:18:04,VALID,1004.25,VALID,0,VALID,83.9024,VALID,0,VALID,26.5446,VALID,65,VALID,0.241016,
2010-09-20, 01:19:04,VALID,1004.28,VALID,0,VALID,83.9406,VALID,0,VALID,26.5251,VALID,15,VALID,0.873438,
2010-09-20, 01:20:04,VALID,1004.27,VALID,0,VALID,83.9482,VALID,0,VALID,26.5466,VALID,6,VALID,0.843359,
2010-09-20, 01:21:04,VALID,1004.32,VALID,0,VALID,83.9482,VALID,0,VALID,26.5466,VALID,29,VALID,1.02148,
2010-09-20, 01:22:04,VALID,1004.35,VALID,0,VALID,84.0321,VALID,0,VALID,26.5466,VALID,26,VALID,0.709375,
2010-09-20, 01:23:04,VALID,1004.38,VALID,0,VALID,83.9787,VALID,0,VALID,26.5271,VALID,59,VALID,0.870313,
2010-09-20, 01:24:04,VALID,1004.39,VALID,0,VALID,83.9558,VALID,0,VALID,26.5036,VALID,25,VALID,0.652734,
2010-09-20, 01:25:04,VALID,1004.39,VALID,0,VALID,84.0169,VALID,0,VALID,26.5466,VALID,11,VALID,0.958594,
2010-09-20, 01:26:04,VALID,1004.39,VALID,0,VALID,83.8948,VALID,0,VALID,26.5251,VALID,31,VALID,1.13711,
2010-09-20, 01:27:04,VALID,1004.38,VALID,0,VALID,83.8872,VALID,0,VALID,26.5641,VALID,105,VALID,0.652734,
2010-09-20, 01:28:04,VALID,1004.4,VALID,0,VALID,84.0779,VALID,0,VALID,26.5446,VALID,69,VALID,0.209766,
2010-09-20, 01:29:04,VALID,1004.38,VALID,0,VALID,83.9406,VALID,0,VALID,26.5466,VALID,21,VALID,1.10312,
2010-09-20, 01:30:04,VALID,1004.38,VALID,0,VALID,83.9711,VALID,0,VALID,26.5271,VALID,44,VALID,0.196875,
2010-09-20, 01:31:04,VALID,1004.41,VALID,0,VALID,84.0321,VALID,0,VALID,26.4861,VALID,52,VALID,0.548437,
2010-09-20, 01:32:04,VALID,1004.43,VALID,0,VALID,84.1694,VALID,0,VALID,26.4861,VALID,25,VALID,0.453906,
2010-09-20, 01:33:04,VALID,1004.43,VALID,0,VALID,84.1237,VALID,0,VALID,26.4667,VALID,61,VALID,0.702734,
2010-09-20, 01:34:04,VALID,1004.45,VALID,0,VALID,84.2915,VALID,0,VALID,26.4472,VALID,74,VALID,0.0648438,
2010-09-20, 01:35:04,VALID,1004.46,VALID,0,VALID,84.4899,VALID,0,VALID,26.4277,VALID,74,VALID,0.119531,
2010-09-20, 01:36:04,VALID,1004.49,VALID,0,VALID,84.8255,VALID,0.100563,VALID,26.4297,VALID,74,VALID,0.253906,
2010-09-20, 01:37:04,VALID,1004.52,VALID,0,VALID,84.9552,VALID,0,VALID,26.3498,VALID,70,VALID,0.414063,
2010-09-20, 01:38:04,VALID,1004.53,VALID,0,VALID,85.0391,VALID,0,VALID,26.3108,VALID,88,VALID,0.417578,
2010-09-20, 01:39:04,VALID,1004.56,VALID,0,VALID,85.1383,VALID,0,VALID,26.2739,VALID,69,VALID,0.602344,
2010-09-20, 01:40:04,VALID,1004.55,VALID,0,VALID,85.3138,VALID,0,VALID,26.2524,VALID,96,VALID,0.230859,
2010-09-20, 01:41:04,VALID,1004.57,VALID,0,VALID,85.3748,VALID,0,VALID,26.2544,VALID,96,VALID,0.414063,
2010-09-20, 01:42:04,VALID,1004.53,VALID,0,VALID,85.474,VALID,0,VALID,26.194,VALID,96,VALID,0.467578,
2010-09-20, 01:43:04,VALID,1004.56,VALID,0,VALID,85.7334,VALID,0,VALID,26.2154,VALID,93,VALID,0.307813,
2010-09-20, 01:44:04,VALID,1004.58,VALID,0,VALID,85.7944,VALID,0,VALID,26.1745,VALID,93,VALID,0.151172,
2010-09-20, 01:45:04,VALID,1004.61,VALID,0,VALID,85.8783,VALID,0,VALID,26.1765,VALID,93,VALID,0,
2010-09-20, 01:46:04,VALID,1004.6,VALID,0,VALID,85.9393,VALID,0,VALID,26.157,VALID,80,VALID,0.388281,
2010-09-20, 01:47:04,VALID,1004.59,VALID,0,VALID,85.9775,VALID,0,VALID,26.155,VALID,83,VALID,0.51875,
2010-09-20, 01:48:04,VALID,1004.6,VALID,0,VALID,86.0843,VALID,0,VALID,26.1355,VALID,84,VALID,0.414063,
2010-09-20, 01:49:04,VALID,1004.62,VALID,0,VALID,86.1529,VALID,0,VALID,26.0966,VALID,84,VALID,0.167969,
2010-09-20, 01:50:04,VALID,1004.63,VALID,0,VALID,86.2369,VALID,0,VALID,26.118,VALID,84,VALID,0.371484,
2010-09-20, 01:51:04,VALID,1004.64,VALID,0,VALID,86.3513,VALID,0,VALID,26.0791,VALID,84,VALID,0.163672,
2010-09-20, 01:52:04,VALID,1004.64,VALID,0,VALID,86.42,VALID,0,VALID,26.0381,VALID,84,VALID,0.218359,
2010-09-20, 01:53:04,VALID,1004.65,VALID,0,VALID,86.5725,VALID,0,VALID,26.0187,VALID,80,VALID,0.378906,
2010-09-20, 01:54:04,VALID,1004.68,VALID,0,VALID,86.7404,VALID,0,VALID,25.9992,VALID,78,VALID,0.547266,
2010-09-20, 01:55:04,VALID,1004.69,VALID,0,VALID,86.7556,VALID,0,VALID,26.0012,VALID,83,VALID,0.584375,
2010-09-20, 01:56:04,VALID,1004.72,VALID,0,VALID,86.7175,VALID,0,VALID,26.0401,VALID,105,VALID,0.435547,
2010-09-20, 01:57:04,VALID,1004.72,VALID,0,VALID,86.6336,VALID,0,VALID,26.0381,VALID,80,VALID,0.528906,
2010-09-20, 01:58:04,VALID,1004.73,VALID,0,VALID,86.6412,VALID,0,VALID,26.0187,VALID,83,VALID,0.0617188,
2010-09-20, 01:59:04,VALID,1004.75,VALID,0,VALID,86.6946,VALID,0,VALID,25.9992,VALID,83,VALID,0.346094,
2010-09-20, 02:00:04,VALID,1004.76,VALID,0,VALID,86.8319,VALID,0,VALID,25.9992,VALID,78,VALID,0.702344,
2010-09-20, 02:01:04,VALID,1004.76,VALID,0,VALID,86.9158,VALID,0,VALID,26.0206,VALID,77,VALID,0.423438,
2010-09-20, 02:02:04,VALID,1004.74,VALID,0,VALID,86.8853,VALID,0,VALID,25.9602,VALID,47,VALID,0.284766,
2010-09-20, 02:03:04,VALID,1004.74,VALID,0,VALID,87.0608,VALID,0,VALID,25.9408,VALID,47,VALID,0.322656,
2010-09-20, 02:04:04,VALID,1004.71,VALID,0,VALID,87.16,VALID,0,VALID,25.8823,VALID,47,VALID,0.122266,
2010-09-20, 02:05:04,VALID,1004.71,VALID,0,VALID,87.4117,VALID,0,VALID,25.8843,VALID,47,VALID,0.253516,
2010-09-20, 02:06:04,VALID,1004.71,VALID,0,VALID,87.6558,VALID,0,VALID,25.8434,VALID,47,VALID,0.243359,
2010-09-20, 02:07:04,VALID,1004.68,VALID,0,VALID,87.8008,VALID,0,VALID,25.8044,VALID,46,VALID,0.385156,
2010-09-20, 02:08:04,VALID,1004.74,VALID,0,VALID,88.0068,VALID,0,VALID,25.785,VALID,43,VALID,0.665625,
2010-09-20, 02:09:04,VALID,1004.74,VALID,0,VALID,88.1822,VALID,0,VALID,25.7265,VALID,18,VALID,0.817578,
2010-09-20, 02:10:04,VALID,1004.74,VALID,0,VALID,88.495,VALID,0,VALID,25.748,VALID,16,VALID,0.694141,
2010-09-20, 02:11:04,VALID,1004.75,VALID,0,VALID,88.2051,VALID,0,VALID,25.7655,VALID,3,VALID,0.550391,
2010-09-20, 02:12:04,VALID,1004.74,VALID,0,VALID,87.9534,VALID,0,VALID,25.8044,VALID,11,VALID,0.616016,
2010-09-20, 02:13:04,VALID,1004.76,VALID,0,VALID,88.0525,VALID,0,VALID,25.785,VALID,21,VALID,0.539063,
2010-09-20, 02:14:04,VALID,1004.76,VALID,0,VALID,88.022,VALID,0,VALID,25.8064,VALID,21,VALID,0.347656,
2010-09-20, 02:15:04,VALID,1004.74,VALID,0,VALID,88.0449,VALID,0,VALID,25.7655,VALID,21,VALID,0.358984,
2010-09-20, 02:16:04,VALID,1004.76,VALID,0,VALID,87.9762,VALID,0,VALID,25.7655,VALID,21,VALID,0.127344,
2010-09-20, 02:17:04,VALID,1004.77,VALID,0,VALID,88.0373,VALID,0,VALID,25.7869,VALID,25,VALID,0.283984,
2010-09-20, 02:18:04,VALID,1004.8,VALID,0,VALID,88.1212,VALID,0,VALID,25.785,VALID,26,VALID,0.282813,
2010-09-20, 02:19:04,VALID,1004.79,VALID,0,VALID,88.0983,VALID,0,VALID,25.7655,VALID,26,VALID,0.400391,
2010-09-20, 02:20:04,VALID,1004.79,VALID,0,VALID,88.1059,VALID,0,VALID,25.8259,VALID,45,VALID,0.528125,
2010-09-20, 02:21:04,VALID,1004.78,VALID,0,VALID,87.9076,VALID,0,VALID,25.8453,VALID,68,VALID,0.607813,
2010-09-20, 02:22:04,VALID,1004.78,VALID,0,VALID,87.6711,VALID,0,VALID,25.8629,VALID,94,VALID,0.962109,
2010-09-20, 02:23:04,VALID,1004.78,VALID,0,VALID,87.3507,VALID,0,VALID,25.9018,VALID,14,VALID,0.269922,
2010-09-20, 02:24:04,VALID,1004.78,VALID,0,VALID,87.2134,VALID,0,VALID,25.9213,VALID,345,VALID,0.585938,
2010-09-20, 02:25:04,VALID,1004.8,VALID,0,VALID,87.2134,VALID,0,VALID,25.8823,VALID,63,VALID,0.319531,
2010-09-20, 02:26:04,VALID,1004.79,VALID,0,VALID,87.1828,VALID,0,VALID,25.8843,VALID,63,VALID,0,
2010-09-20, 02:27:04,VALID,1004.82,VALID,0,VALID,87.1676,VALID,0,VALID,25.8648,VALID,63,VALID,0,
2010-09-20, 02:28:04,VALID,1004.79,VALID,0,VALID,87.3812,VALID,0,VALID,25.8453,VALID,63,VALID,0,
2010-09-20, 02:29:04,VALID,1004.8,VALID,0,VALID,87.4804,VALID,0,VALID,25.8239,VALID,66,VALID,0.449609,
2010-09-20, 02:30:04,VALID,1004.78,VALID,0,VALID,87.4804,VALID,0,VALID,25.8434,VALID,113,VALID,0.476953,
2010-09-20, 02:31:04,VALID,1004.82,VALID,0,VALID,87.4422,VALID,0,VALID,25.8434,VALID,113,VALID,0.178906,
2010-09-20, 02:32:04,VALID,1004.81,VALID,0,VALID,87.4804,VALID,0,VALID,25.8434,VALID,111,VALID,0.137891,
2010-09-20, 02:33:04,VALID,1004.81,VALID,0,VALID,87.6406,VALID,0.100563,VALID,25.8239,VALID,354,VALID,0.180469,
2010-09-20, 02:34:04,VALID,1004.8,VALID,0,VALID,87.4956,VALID,0,VALID,25.8259,VALID,353,VALID,0.267188,
2010-09-20, 02:35:04,VALID,1004.82,VALID,0,VALID,87.5261,VALID,0,VALID,25.785,VALID,81,VALID,0.334766,
2010-09-20, 02:36:04,VALID,1004.83,VALID,0,VALID,87.3583,VALID,0,VALID,25.8629,VALID,68,VALID,1.00703,
2010-09-20, 02:37:04,VALID,1004.84,VALID,0,VALID,87.0532,VALID,0,VALID,25.8998,VALID,55,VALID,1.07773,
2010-09-20, 02:38:04,VALID,1004.82,VALID,0,VALID,86.8395,VALID,0,VALID,25.9408,VALID,50,VALID,0.161719,
2010-09-20, 02:39:04,VALID,1004.82,VALID,0,VALID,86.7938,VALID,0.100563,VALID,25.9408,VALID,29,VALID,0.638672,
2010-09-20, 02:40:04,VALID,1004.81,VALID,0,VALID,86.7938,VALID,0,VALID,25.9213,VALID,41,VALID,0.407813,
2010-09-20, 02:41:04,VALID,1004.82,VALID,0,VALID,86.8395,VALID,0.100563,VALID,25.9213,VALID,37,VALID,0.265234,
2010-09-20, 02:42:04,VALID,1004.85,VALID,0,VALID,86.7175,VALID,0,VALID,25.9213,VALID,12,VALID,0.658984,
2010-09-20, 02:43:04,VALID,1004.81,VALID,0,VALID,86.9387,VALID,0,VALID,25.9038,VALID,50,VALID,0.914453,
2010-09-20, 02:44:04,VALID,1004.83,VALID,0,VALID,86.9921,VALID,0,VALID,25.9232,VALID,45,VALID,0.394531,
2010-09-20, 02:45:04,VALID,1004.83,VALID,0,VALID,86.9006,VALID,0,VALID,25.9232,VALID,63,VALID,0.327344,
2010-09-20, 02:46:04,VALID,1004.81,VALID,0,VALID,86.9235,VALID,0,VALID,25.9447,VALID,59,VALID,0.855078,
2010-09-20, 02:47:04,VALID,1004.82,VALID,0,VALID,86.7785,VALID,0,VALID,25.9427,VALID,90,VALID,0.580078,
2010-09-20, 02:48:04,VALID,1004.79,VALID,0,VALID,86.6031,VALID,0,VALID,26.0012,VALID,51,VALID,0.582812,
2010-09-20, 02:49:04,VALID,1004.8,VALID,0,VALID,86.3742,VALID,0,VALID,26.0012,VALID,10,VALID,0.334375,
2010-09-20, 02:50:04,VALID,1004.78,VALID,0,VALID,86.4505,VALID,0,VALID,26.0031,VALID,9,VALID,0.344531,
2010-09-20, 02:51:04,VALID,1004.79,VALID,0,VALID,86.6107,VALID,0,VALID,25.9427,VALID,9,VALID,0.367188,
2010-09-20, 02:52:04,VALID,1004.81,VALID,0,VALID,86.7327,VALID,0,VALID,25.9427,VALID,31,VALID,0.478125,
2010-09-20, 02:53:04,VALID,1004.8,VALID,0,VALID,86.8319,VALID,0,VALID,25.9232,VALID,31,VALID,0.380859,
2010-09-20, 02:54:04,VALID,1004.82,VALID,0,VALID,86.7938,VALID,0,VALID,25.8843,VALID,31,VALID,0.443359,
2010-09-20, 02:55:04,VALID,1004.84,VALID,0,VALID,86.9464,VALID,0,VALID,25.8239,VALID,38,VALID,0.408203,
2010-09-20, 02:56:04,VALID,1004.85,VALID,0,VALID,87.1066,VALID,0,VALID,25.8843,VALID,36,VALID,0.796875,
2010-09-20, 02:57:04,VALID,1004.86,VALID,0,VALID,86.9845,VALID,0,VALID,25.8843,VALID,57,VALID,0.597656,
2010-09-20, 02:58:04,VALID,1004.86,VALID,0,VALID,86.9158,VALID,0,VALID,25.8823,VALID,46,VALID,0.35625,
2010-09-20, 02:59:04,VALID,1004.87,VALID,0,VALID,87.0303,VALID,0,VALID,25.8823,VALID,74,VALID,0.539453,
2010-09-20, 03:00:04,VALID,1004.9,VALID,0,VALID,86.9311,VALID,0,VALID,25.9213,VALID,82,VALID,0.065625,
2010-09-20, 03:01:04,VALID,1004.89,VALID,0,VALID,86.8853,VALID,0,VALID,25.9213,VALID,108,VALID,0.273438,
2010-09-20, 03:02:04,VALID,1004.89,VALID,0,VALID,86.7938,VALID,0,VALID,25.9408,VALID,48,VALID,0.358203,
2010-09-20, 03:03:04,VALID,1004.92,VALID,0,VALID,86.6336,VALID,0,VALID,25.9817,VALID,72,VALID,0.675391,
2010-09-20, 03:04:04,VALID,1004.94,VALID,0,VALID,86.4734,VALID,0.100563,VALID,25.9777,VALID,67,VALID,0.0488281,
2010-09-20, 03:05:04,VALID,1004.96,VALID,0,VALID,86.3818,VALID,0,VALID,25.9992,VALID,1,VALID,0.604297,
2010-09-20, 03:06:04,VALID,1004.98,VALID,0,VALID,86.2979,VALID,0,VALID,25.9972,VALID,26,VALID,0.721094,
2010-09-20, 03:07:04,VALID,1004.98,VALID,0,VALID,86.1758,VALID,0,VALID,26.0187,VALID,25,VALID,0.333203,
2010-09-20, 03:08:04,VALID,1005,VALID,0,VALID,86.2674,VALID,0.100563,VALID,26.0187,VALID,26,VALID,0.691406,
2010-09-20, 03:09:04,VALID,1005.03,VALID,0,VALID,86.2674,VALID,0,VALID,25.9992,VALID,43,VALID,0.666797,
2010-09-20, 03:10:04,VALID,1005.03,VALID,0,VALID,86.3437,VALID,0,VALID,26.0596,VALID,79,VALID,0.453125,
2010-09-20, 03:11:04,VALID,1005.05,VALID,0,VALID,86.0461,VALID,0.100563,VALID,26.0187,VALID,345,VALID,0.271484,
2010-09-20, 03:12:04,VALID,1005.02,VALID,0,VALID,86.1453,VALID,0,VALID,25.9992,VALID,347,VALID,0.516797,
2010-09-20, 03:13:04,VALID,1005.04,VALID,0,VALID,86.1377,VALID,0.100563,VALID,25.9797,VALID,16,VALID,0.569531,
2010-09-20, 03:14:04,VALID,1005.04,VALID,0,VALID,86.1758,VALID,0,VALID,25.8823,VALID,15,VALID,0.456641,
2010-09-20, 03:15:04,VALID,1005.04,VALID,0,VALID,86.8395,VALID,0,VALID,25.785,VALID,12,VALID,0.264844,
2010-09-20, 03:16:04,VALID,1005.05,VALID,0,VALID,87.3125,VALID,0,VALID,25.746,VALID,12,VALID,0.421875,
2010-09-20, 03:17:04,VALID,1005.04,VALID,0,VALID,87.4346,VALID,0,VALID,25.7285,VALID,12,VALID,0.288281,
2010-09-20, 03:18:04,VALID,1005.05,VALID,0,VALID,87.4727,VALID,0,VALID,25.6876,VALID,12,VALID,0.501953,
2010-09-20, 03:19:04,VALID,1005.02,VALID,0,VALID,87.7245,VALID,0,VALID,25.6486,VALID,12,VALID,0.498437,
2010-09-20, 03:20:04,VALID,1005.05,VALID,0,VALID,87.8389,VALID,0,VALID,25.6292,VALID,9,VALID,0.616016,
2010-09-20, 03:21:04,VALID,1005.08,VALID,0,VALID,87.8847,VALID,0,VALID,25.6097,VALID,359,VALID,0.551172,
2010-09-20, 03:22:04,VALID,1005.07,VALID,0,VALID,88.0983,VALID,0,VALID,25.5707,VALID,359,VALID,0.756641,
2010-09-20, 03:23:04,VALID,1005.08,VALID,0,VALID,88.5942,VALID,0,VALID,25.4734,VALID,359,VALID,0.459375,
2010-09-20, 03:24:04,VALID,1005.07,VALID,0,VALID,89.2503,VALID,0,VALID,25.3955,VALID,359,VALID,0.741016,
2010-09-20, 03:25:04,VALID,1005.07,VALID,0,VALID,89.8682,VALID,0,VALID,25.376,VALID,357,VALID,0.869141,
2010-09-20, 03:26:04,VALID,1005.1,VALID,0,VALID,90.1047,VALID,0,VALID,25.337,VALID,357,VALID,0.557422,
2010-09-20, 03:27:04,VALID,1005.09,VALID,0,VALID,90.448,VALID,0,VALID,25.2981,VALID,358,VALID,0.648828,
2010-09-20, 03:28:04,VALID,1005.1,VALID,0,VALID,91.7144,VALID,0,VALID,25.3176,VALID,359,VALID,0.705859,
2010-09-20, 03:29:04,VALID,1005.11,VALID,0,VALID,91.9051,VALID,0,VALID,25.3584,VALID,352,VALID,0.837891,
2010-09-20, 03:30:04,VALID,1005.09,VALID,0,VALID,91.3558,VALID,0.100563,VALID,25.3955,VALID,360,VALID,0.7875,
2010-09-20, 03:31:04,VALID,1005.1,VALID,0,VALID,90.3641,VALID,0,VALID,25.4149,VALID,360,VALID,0.779688,
2010-09-20, 03:32:04,VALID,1005.1,VALID,0,VALID,90.387,VALID,0.100563,VALID,25.3565,VALID,359,VALID,0.860156,
2010-09-20, 03:33:04,VALID,1005.11,VALID,0,VALID,91.7373,VALID,0.100563,VALID,25.2592,VALID,358,VALID,0.766016,
2010-09-20, 03:34:04,VALID,1005.14,VALID,0,VALID,93.3165,VALID,0,VALID,25.3195,VALID,9,VALID,0.582812,
2010-09-20, 03:35:04,VALID,1005.13,VALID,0,VALID,93.0952,VALID,0,VALID,25.2786,VALID,9,VALID,0.491406,
2010-09-20, 03:36:04,VALID,1005.15,VALID,0,VALID,93.0647,VALID,0,VALID,25.2397,VALID,9,VALID,0.333984,
2010-09-20, 03:37:04,VALID,1005.14,VALID,0,VALID,94.0183,VALID,0,VALID,25.2202,VALID,9,VALID,0.332031,
2010-09-20, 03:38:04,VALID,1005.13,VALID,0,VALID,94.8422,VALID,0,VALID,25.1813,VALID,9,VALID,0.24375,
2010-09-20, 03:39:04,VALID,1005.16,VALID,0,VALID,102.021,VALID,0.100563,VALID,25.1618,VALID,9,VALID,0.312109,
2010-09-20, 03:40:04,VALID,1005.17,VALID,0,VALID,103.768,VALID,0.100563,VALID,25.1034,VALID,9,VALID,0.124219,
2010-09-20, 03:41:04,VALID,1005.16,VALID,0,INVALID,109.894,VALID,0.100563,VALID,25.0644,VALID,9,VALID,0.364453,
2010-09-20, 03:42:04,VALID,1005.16,VALID,0,INVALID,121.574,VALID,0.100563,VALID,25.006,VALID,9,VALID,0.449219,
2010-09-20, 03:43:04,VALID,1005.17,VALID,0,INVALID,126.327,VALID,0.100563,VALID,24.9068,VALID,9,VALID,0.251172,
2010-09-20, 03:44:04,VALID,1005.17,VALID,0,INVALID,129.271,VALID,0,VALID,24.8911,VALID,9,VALID,0.118359,
2010-09-20, 03:45:04,VALID,1005.18,VALID,0,INVALID,130.256,VALID,0,VALID,24.8522,VALID,9,VALID,0.537109,